Погода в Вецпиебалге

Латвия     57°03′59″N   25°48′33″E
темп.,
°C
ветер,
м/с
пор.,
м/с
влажн.,
%
обл.,
%
осадки,
мм/ч
давл.,
гПа
погр.,
м
27 сентября, пн
пн2700:00+5ссв23846 0.0 102642
03:00+4всв23955 0.0 102855
06:00+4всв23965 0.0 102850
09:00+6в24865 0.0 1029157
12:00+12в24625 0.0 1029767
15:00+13в23555 0.0 10281185
18:00+11в24705 0.0 1028100
21:00+7в25871 0.0 102989
28 сентября, вт
вт2800:00+6в25920 0.0 103094
03:00+5в24960 0.0 103183
06:00+5в24964 0.0 103177
09:00+7в25864 0.0 1031160
12:00+12вюв35645 0.0 1031783
15:00+14вюв345545 0.0 10311429
18:00+12вюв2459100 0.0 1031156
21:00+10в2568100 0.0 1032123
29 сентября, ср
ср2900:00+9вюв3880100 0.0 1033310
03:00+8вюв3783100 0.0 1033304
06:00+8вюв2781100 0.0 1033288
09:00+8вюв3781100 0.0 1034376
12:00+10юв4772100 0.0 1034582
15:00+10юв466688 0.0 1033780
18:00+10юв266747 0.0 1032342
21:00+8юв397390 0.0 1033403
30 сентября, чт
чт3000:00+8юв3972100 0.0 1033452
03:00+8юв4969100 0.0 1033498
06:00+7юв3975100 0.0 1032439
09:00+6юв497596 0.0 1032297
12:00+10юв58576 0.0 10311102
15:00+12ююв575530 0.0 10301210
18:00+10ююв49661 0.0 1029869
21:00+8ююв4127886 0.0 1029450
1 октября, пт
пт100:00+7ююв41182100 0.0 1030362
03:00+7ююв3985100 0.0 1029351
06:00+7ююв3890100 0.1 1029337
09:00+7ююв3892100 0.3 1029345
12:00+10ю3582100 0.0 1029485
15:00+11ю358089 0.0 1028648
18:00+10ююв2684100 0.0 1028454
21:00+7ююв399794 0.1 1028212